FW8945 Weather Reports


Display with metric or nautical units.
time (UTC)temp
F
wind
direction
speed
MPH
gust
MPH
rain 1hr
in
rain 24hr
in
rain mn
in
humidity
%
barometer
mb
20260506113057 65 115 0.0 7.0 0.00 0.00 0.00 73 1007.7
20260506111557 65 0 0.0 9.0 0.00 0.00 0.00 74 1007.6
20260506110103 64 0 0.0 7.0 0.00 0.00 0.00 74 1007.4
20260506104600 64 0 0.0 4.0 0.00 0.00 0.00 75 1007.3
20260506103103 64 0 0.0 6.0 0.00 0.00 0.00 75 1007.4
20260506101604 64 0 0.0 1.0 0.00 0.00 0.00 75 1007.4
20260506094631 63 0 0.0 4.0 0.00 0.00 0.00 76 1007.3
20260506093056 63 0 0.0 4.0 0.00 0.00 0.00 76 1007.4
20260506091551 64 0 0.0 4.0 0.00 0.00 0.00 76 1007.4
20260506090054 64 0 0.0 1.0 0.00 0.00 0.00 75 1007.4
20260506084555 64 0 0.0 1.0 0.00 0.00 0.00 75 1007.5
20260506083102 64 0 0.0 3.0 0.00 0.00 0.00 74 1007.6
20260506081553 65 0 0.0 0.0 0.00 0.00 0.00 73 1007.6
20260506073053 65 0 0.0 1.0 0.00 0.00 0.00 71 1007.5
20260506071553 66 0 0.0 8.0 0.00 0.00 0.00 70 1007.5
20260506070104 66 0 0.0 6.0 0.00 0.00 0.00 69 1007.6
20260506061558 66 0 0.0 7.0 0.00 0.00 0.00 67 1007.8
20260506044557 68 0 0.0 3.0 0.00 0.00 0.00 63 1008.3
20260506043052 68 146 0.0 7.0 0.00 0.00 0.00 62 1008.2
20260506041553 68 0 0.0 4.0 0.00 0.00 0.00 61 1008.2
20260506040104 69 0 0.0 6.0 0.00 0.00 0.00 60 1008.1
20260506034608 69 0 0.0 10.0 0.00 0.00 0.00 60 1008.1
20260506033055 69 0 1.0 7.0 0.00 0.00 0.00 59 1008.2
20260506031603 70 131 0.0 8.0 0.00 0.00 0.00 58 1008.1
20260506030056 71 0 0.0 10.0 0.00 0.00 0.00 57 1008.2
20260506024554 71 0 1.0 7.0 0.00 0.00 0.00 54 1008.0
20260506023054 72 0 0.0 7.0 0.00 0.00 0.00 53 1008.0
20260506021559 73 0 0.0 11.0 0.00 0.00 0.00 51 1008.0
20260506020101 74 155 2.0 8.0 0.00 0.00 0.00 48 1007.9
20260506014556 74 164 0.0 8.0 0.00 0.00 0.00 46 1007.7
20260506013058 75 0 0.0 4.0 0.00 0.00 0.00 45 1007.5
20260506011601 75 0 0.0 5.0 0.00 0.00 0.00 44 1007.3
20260506010059 76 0 0.0 8.0 0.00 0.00 0.00 43 1007.1
20260506004552 76 119 1.0 10.0 0.00 0.00 0.00 42 1006.9
20260506003058 76 136 0.0 7.0 0.00 0.00 0.00 41 1006.9
20260506001554 77 0 0.0 8.0 0.00 0.00 0.00 38 1006.7
20260506000053 77 0 0.0 4.0 0.00 0.00 0.00 36 1006.6
20260505234603 78 0 0.0 4.0 0.00 0.00 0.00 36 1006.5
20260505233109 78 185 1.0 11.0 0.00 0.00 0.00 35 1006.5
20260505231602 79 150 0.0 10.0 0.00 0.00 0.00 34 1006.1
20260505230056 79 148 1.0 7.0 0.00 0.00 0.00 33 1006.0
20260505224554 80 171 0.0 8.0 0.00 0.00 0.00 32 1005.9
20260505223057 81 243 3.0 15.0 0.00 0.00 0.00 31 1005.7
20260505221554 81 113 1.0 7.0 0.00 0.00 0.00 30 1005.6
20260505220053 81 177 1.0 12.0 0.00 0.00 0.00 31 1005.4
20260505214555 82 300 1.0 12.0 0.00 0.00 0.00 32 1005.4
20260505213054 82 98 0.0 12.0 0.00 0.00 0.00 32 1005.4
20260505211610 83 223 0.0 13.0 0.00 0.00 0.00 31 1005.1
20260505210054 83 167 3.0 18.0 0.00 0.00 0.00 30 1005.1
20260505204602 83 119 3.0 13.0 0.00 0.00 0.00 31 1005.1
20260505203058 83 239 0.0 15.0 0.00 0.00 0.00 31 1005.2
20260505201600 83 111 2.0 11.0 0.00 0.00 0.00 32 1005.4
20260505194609 84 0 2.0 13.0 0.00 0.00 0.00 33 1005.3
20260505193054 84 163 2.0 10.0 0.00 0.00 0.00 33 1005.4
20260505191554 83 164 0.0 12.0 0.00 0.00 0.00 34 1005.7
20260505190057 83 200 2.0 16.0 0.00 0.00 0.00 32 1005.9
20260505184553 82 136 2.0 13.0 0.00 0.00 0.00 36 1006.1
20260505183055 83 0 1.0 10.0 0.00 0.00 0.00 37 1006.5
20260505181600 82 136 2.0 15.0 0.00 0.00 0.00 37 1006.5
20260505180058 82 203 1.0 9.0 0.00 0.00 0.00 39 1006.6
20260505174606 82 166 1.0 11.0 0.00 0.00 0.00 39 1006.8
20260505173057 82 0 2.0 9.0 0.00 0.00 0.00 40 1006.9
20260505171608 81 169 0.0 7.0 0.00 0.00 0.00 44 1007.2
20260505170057 80 0 1.0 8.0 0.00 0.00 0.00 44 1007.1
20260505164617 79 0 0.0 9.0 0.00 0.00 0.00 45 1007.3
20260505163102 78 0 0.0 7.0 0.00 0.00 0.00 45 1007.5
20260505161613 77 0 0.0 7.0 0.00 0.00 0.00 49 1007.5
20260505153055 74 188 0.0 5.0 0.00 0.00 0.00 52 1008.5
20260505151559 73 0 0.0 10.0 0.00 0.00 0.00 53 1008.7
20260505150106 72 0 0.0 8.0 0.00 0.00 0.00 54 1008.7
20260505130110 63 0 0.0 4.0 0.00 0.00 0.00 68 1008.9
20260505124602 62 0 0.0 6.0 0.00 0.00 0.00 71 1008.6
20260505123106 60 0 0.0 0.0 0.00 0.00 0.00 74 1008.7
20260505121553 58 128 0.0 0.0 0.00 0.00 0.00 78 1008.7
20260505120108 57 0 0.0 0.0 0.00 0.00 0.00 80 1009.0
20260505114556 56 0 0.0 1.0 0.00 0.00 0.00 81 1009.0